08:52
Airports
History
Links
Donate
Help keep this website running!
PayPal
Bitcoin
This page is community maintained. The information is intended for PC simulator navigation or reference.
Always use approved charts for navigation.
EDKA
Aachen Merzbruck
Aachen Merzbruck (EDKA)
Würselen, Nordrhein-Westfalen, Germany (52146)
(U)
Lat/Lng:50° 49' 26.98" N / 6° 11' 12.99" E
50.824162 / 6.186942
Elevation:623'ft / 190mMSL
ID / ICAO:EDKA
Runways:1
Longest:08-26
Asphalt 515m / 1,690ft
Nearby Weather08:50 GMT 2018-02-21
Nearby weather at ETNG, GEILENKIRCHEN located 11.4 nautical miles from EDKA
Altimeter: 30.27
Visibility: 3.7 statute miles
Wind: 4 knots (from 040°)
Temp: 1°c / 34°f
Humidity: 74.6%

METAR: ETNG 210850Z 04004KT 6000 FEW033 01/M03 Q1025 NOSIG

(Powered by phpweather)
Nearby VORs <50NM
Nearby NDBs
Runway 08 / 26
Dimensions:515 x 20.1m 1690' x 66'ft
Surface:Asphalt
Runway 08 [A]Runway 26 [B]
Heading:077°TH 257°TH
Lat:
Lng:
50° 49' 25.09"N
6° 10' 60"E
50° 49' 28.88"N
6° 11' 25.98"E
User Notes and Comments
50° 49' 26.98" N / 6° 11' 12.99" E
Distance To
Airport ID:
Nearby Airports
(C) GEILENKIRCHEN 11.4 NM
ETNG ( WX ) NW 326°
(C) Maastricht 19.2 NM
EHBK ( WX ) WNW 288°
(C) NORVENICH 20.6 NM
ETNN ( WX ) E 88°
4 Verviers 23.7 NM
EBTX SW 217°
(U) Spa 26.5 NM
EBSP ( WX ) SSW 207°
(U) Zutendaal 27.4 NM
EBSL WNW 288°
(C) Monchengladbach 31.3 NM
EDLN ( WX ) NNE 26°
VFR Chart
Flight Planning at SkyVector.com